Russellville, AR

5:24 AM CDT on July 23, 2017 (GMT -0500)
Russellville Regional

Weather History for KRUE - December, 2012

Change the Weather History Date:

Thursday, December 6, 2012

  Actual Average (KHOT) Record (KHOT)
Temperature  
Mean Temperature 57 °F -  
Max Temperature 64 °F 57 °F 75 °F (1951)
Min Temperature 50 °F 35 °F 15 °F (1950)
Degree Days  
Heating Degree Days 8    
Growing Degree Days 7 (Base 50)    
Moisture  
Dew Point 47 °F    
Average Humidity 76    
Maximum Humidity 94    
Minimum Humidity 58    
Precipitation  
Precipitation 0.00 in - - ()
Sea Level Pressure  
Sea Level Pressure 29.97 in    
Wind  
Wind Speed 1 mph (South)    
Max Wind Speed 10 mph    
Max Gust Speed 16 mph    
Visibility 10 miles    
Events      
Averages and records for this station are not official NWS values.
T = Trace of Precipitation, MM = Missing Value Source: NWS Daily Summary

Daily Weather History Graph

Daily Weather History Graph

Search for Another Location

Airport or City:

Trip Planner

Search our weather history database for the weather conditions in past years. The results will help you decide how hot, cold, wet, or windy it might be!

Date:

Astronomy

Dec. 06, 2012 Rise Set
Actual Time 7:07 AM CST 4:59 PM CST
Civil Twilight 6:39 AM CST 5:27 PM CST
Nautical Twilight 6:07 AM CST 5:59 PM CST
Astronomical Twilight 5:36 AM CST 6:30 PM CST
Moon No Moon Rise 12:12 PM CST (12/6)
Length of Visible Light 10h 48m
Length of Day
9h 52m
Waning Gibbous, 49% of the Moon is Illuminated
Dec 6
Waning Gibbous
Dec 13
New
Dec 19
First Quarter
Dec 28
Full
Jan 4
Last Quarter

Hourly Weather History & Observations

Time (CST) Temp. Dew Point Humidity Pressure Visibility Wind Dir Wind Speed Gust Speed Precip Events Conditions
12:53 AM 50.0 °F 43.0 °F 77% 30.08 in 10.0 mi Calm Calm - N/A   Overcast
1:13 AM 51.8 °F 41.0 °F 67% 30.08 in 10.0 mi Calm Calm - N/A   Overcast
1:53 AM 50.0 °F 43.0 °F 77% 30.06 in 10.0 mi Calm Calm - N/A   Overcast
2:01 AM 50.0 °F 44.6 °F 82% 30.07 in 10.0 mi Calm Calm - N/A   Overcast
2:50 AM 50.0 °F 44.6 °F 82% 30.05 in 10.0 mi Calm Calm - N/A   Overcast
2:53 AM 51.1 °F 43.0 °F 74% 30.04 in 10.0 mi Calm Calm - N/A   Overcast
3:53 AM 51.1 °F 44.1 °F 77% 30.02 in 10.0 mi Calm Calm - N/A   Overcast
4:53 AM 52.0 °F 44.1 °F 74% 30.01 in 10.0 mi Calm Calm - N/A   Overcast
5:53 AM 52.0 °F 42.1 °F 69% 30.02 in 10.0 mi Calm Calm - N/A   Overcast
6:53 AM 53.1 °F 42.1 °F 66% 30.03 in 10.0 mi Calm Calm - N/A   Overcast
7:53 AM 53.1 °F 42.1 °F 66% 30.01 in 10.0 mi Variable 3.5 mph - N/A   Overcast
8:53 AM 54.0 °F 41.0 °F 62% 30.01 in 10.0 mi Variable 3.5 mph - N/A   Overcast
9:53 AM 55.9 °F 46.0 °F 69% 30.01 in 10.0 mi Calm Calm - N/A   Overcast
10:53 AM 57.9 °F 48.9 °F 72% 30.00 in 10.0 mi Variable 4.6 mph - N/A   Overcast
11:53 AM 61.0 °F 50.0 °F 67% 29.96 in 10.0 mi SSW 5.8 mph - N/A   Scattered Clouds
12:53 PM 63.0 °F 50.0 °F 63% 29.92 in 10.0 mi Variable 4.6 mph - N/A   Partly Cloudy
1:53 PM 64.0 °F 50.0 °F 60% 29.91 in 10.0 mi SSW 10.4 mph 16.1 mph N/A   Clear
2:53 PM 64.9 °F 50.0 °F 58% 29.89 in 10.0 mi South 5.8 mph - N/A   Clear
3:53 PM 64.0 °F 51.1 °F 63% 29.89 in 10.0 mi South 8.1 mph - N/A   Clear
4:53 PM 60.1 °F 51.1 °F 72% 29.89 in 10.0 mi South 5.8 mph - N/A   Clear
5:38 PM 59.0 °F 51.8 °F 77% 29.90 in 10.0 mi Variable 3.5 mph - N/A   Mostly Cloudy
5:53 PM 60.1 °F 52.0 °F 75% 29.89 in 10.0 mi Calm Calm - N/A   Overcast
6:53 PM 55.9 °F 51.1 °F 84% 29.91 in 10.0 mi Calm Calm - N/A   Mostly Cloudy
7:20 PM 53.6 °F 51.8 °F 94% 29.92 in 10.0 mi Calm Calm - N/A   Mostly Cloudy
7:53 PM 54.0 °F 50.0 °F 86% 29.91 in 10.0 mi Calm Calm - N/A   Mostly Cloudy
8:53 PM 55.9 °F 52.0 °F 87% 29.90 in 10.0 mi Calm Calm - N/A   Overcast
9:53 PM 55.0 °F 51.1 °F 86% 29.90 in 10.0 mi Calm Calm - N/A   Overcast
10:24 PM 53.6 °F 51.8 °F 94% 29.92 in 10.0 mi Calm Calm - N/A   Partly Cloudy
10:53 PM 51.1 °F 48.9 °F 92% 29.91 in 10.0 mi Calm Calm - N/A   Scattered Clouds
11:33 PM 51.8 °F 50.0 °F 94% 29.91 in 10.0 mi Calm Calm - N/A   Mostly Cloudy
11:53 PM 52.0 °F 48.9 °F 89% 29.90 in 10.0 mi Calm Calm - N/A   Overcast